WZZ1YL EPWA-LBSF

Flight info

Callsign WZZ1YL
Flight time N/A
Altitude 39000
Route XIMBA N195 NATEV DCT ROBTU DCT KENIN DCT BADOR DCT OSTOV DCT GOL
Aircraft A20N/M-SDE1E2E3FGIJ1J4RWXY/LB1

Departure

Time 2026-05-07 09:24
Airport Warsaw Chopin Airport (EPWA)

Arrival

Time N/A
Airport Sofia Airport (LBSF)
Time Latitude Longitude Altitude Speed Heading
2026-05-07 09:01 52.16958 20.97199 332 ft 0 kts 69°
2026-05-07 09:08 52.16958 20.97198 336 ft 0 kts 69°
2026-05-07 09:15 52.16957 20.97194 331 ft 1 kts 69°
2026-05-07 09:16 52.16954 20.97183 332 ft 1 kts 69°
2026-05-07 09:16 52.16952 20.97171 332 ft 1 kts 69°
2026-05-07 09:16 52.16949 20.97160 334 ft 1 kts 69°
2026-05-07 09:16 52.16946 20.97148 332 ft 1 kts 69°
2026-05-07 09:17 52.16943 20.97136 332 ft 1 kts 69°
2026-05-07 09:17 52.16941 20.97125 332 ft 1 kts 69°
2026-05-07 09:17 52.16938 20.97113 334 ft 1 kts 69°
2026-05-07 09:17 52.16935 20.97102 333 ft 1 kts 69°
2026-05-07 09:18 52.16932 20.97090 331 ft 1 kts 69°
2026-05-07 09:18 52.16930 20.97079 332 ft 1 kts 79°
2026-05-07 09:18 52.16929 20.97066 332 ft 1 kts 95°
2026-05-07 09:18 52.16929 20.97054 333 ft 1 kts 110°
2026-05-07 09:19 52.16932 20.97043 332 ft 1 kts 131°
2026-05-07 09:19 52.16935 20.97038 331 ft 0 kts 143°
2026-05-07 09:20 52.16928 20.97044 333 ft 3 kts 148°
2026-05-07 09:20 52.16899 20.97070 334 ft 7 kts 152°
2026-05-07 09:20 52.16847 20.97115 332 ft 10 kts 152°
2026-05-07 09:21 52.16773 20.97180 333 ft 14 kts 152°
2026-05-07 09:21 52.16678 20.97263 336 ft 17 kts 151°
2026-05-07 09:21 52.16581 20.97357 332 ft 14 kts 130°
2026-05-07 09:21 52.16533 20.97516 335 ft 17 kts 114°
2026-05-07 09:22 52.16479 20.97707 333 ft 20 kts 114°
2026-05-07 09:22 52.16417 20.97927 336 ft 23 kts 116°
2026-05-07 09:22 52.16349 20.98168 334 ft 24 kts 115°
2026-05-07 09:22 52.16280 20.98407 334 ft 19 kts 115°
2026-05-07 09:23 52.16204 20.98444 335 ft 11 kts 207°
2026-05-07 09:23 52.16124 20.98374 329 ft 12 kts 230°
2026-05-07 09:23 52.16140 20.98263 333 ft 11 kts 294°
2026-05-07 09:23 52.16213 20.98007 335 ft 55 kts 294°
2026-05-07 09:24 52.16467 20.97099 335 ft 118 kts 294°
2026-05-07 09:24 52.16868 20.95664 530 ft 148 kts 294°
2026-05-07 09:24 52.17291 20.94126 1175 ft 150 kts 295°
2026-05-07 09:24 52.17730 20.92560 1835 ft 154 kts 294°
2026-05-07 09:25 52.18174 20.90937 2400 ft 164 kts 290°
2026-05-07 09:25 52.18301 20.89041 2899 ft 177 kts 263°
2026-05-07 09:25 52.18039 20.86947 3414 ft 202 kts 257°
2026-05-07 09:25 52.17726 20.84589 4029 ft 223 kts 257°
2026-05-07 09:26 52.17369 20.82007 4669 ft 244 kts 256°
2026-05-07 09:26 52.16845 20.79333 5356 ft 257 kts 239°
2026-05-07 09:26 52.15618 20.77248 6366 ft 258 kts 211°
2026-05-07 09:26 52.13903 20.76347 7316 ft 266 kts 186°
2026-05-07 09:27 52.12068 20.76861 8277 ft 276 kts 159°
2026-05-07 09:27 52.10484 20.78729 9264 ft 289 kts 136°
2026-05-07 09:27 52.07797 20.83901 10684 ft 318 kts 135°
2026-05-07 09:28 52.06206 20.86574 11044 ft 338 kts 139°
2026-05-07 09:28 52.04460 20.89203 11778 ft 345 kts 141°
2026-05-07 09:28 52.02650 20.91783 12653 ft 348 kts 142°
2026-05-07 09:28 52.00803 20.94359 13500 ft 352 kts 143°
2026-05-07 09:29 51.98925 20.96957 14279 ft 356 kts 143°
2026-05-07 09:29 51.97035 20.99567 15049 ft 358 kts 143°
2026-05-07 09:29 51.95127 21.02203 15798 ft 362 kts 143°
2026-05-07 09:29 51.93201 21.04866 16523 ft 366 kts 143°
2026-05-07 09:30 51.91252 21.07559 17251 ft 370 kts 143°
2026-05-07 09:30 51.89281 21.10283 17992 ft 375 kts 143°
2026-05-07 09:30 51.87966 21.12099 18426 ft 377 kts 143°
2026-05-07 09:30 51.85960 21.14868 19065 ft 380 kts 144°
2026-05-07 09:31 51.83937 21.17656 19693 ft 384 kts 144°
2026-05-07 09:31 51.81896 21.20465 20321 ft 387 kts 144°
2026-05-07 09:31 51.79834 21.23299 20936 ft 391 kts 144°
2026-05-07 09:31 51.77755 21.26153 21551 ft 394 kts 144°
2026-05-07 09:32 51.75655 21.29031 22145 ft 398 kts 145°
2026-05-07 09:32 51.73534 21.31935 22716 ft 402 kts 145°
2026-05-07 09:32 51.71380 21.34878 23165 ft 409 kts 145°
2026-05-07 09:32 51.69203 21.37851 23732 ft 411 kts 145°
2026-05-07 09:33 51.67018 21.40833 24281 ft 412 kts 146°
2026-05-07 09:33 51.64731 21.43604 24807 ft 410 kts 152°
2026-05-07 09:33 51.62301 21.45979 25312 ft 410 kts 155°
2026-05-07 09:33 51.59871 21.48297 25813 ft 412 kts 155°
2026-05-07 09:34 51.57402 21.50660 26298 ft 414 kts 155°
2026-05-07 09:34 51.54917 21.53039 26766 ft 417 kts 155°
2026-05-07 09:34 51.52421 21.55430 27227 ft 419 kts 155°
2026-05-07 09:34 51.49911 21.57830 27662 ft 421 kts 155°
2026-05-07 09:35 51.47388 21.60242 28099 ft 423 kts 155°
2026-05-07 09:35 51.44851 21.62662 28417 ft 427 kts 155°
2026-05-07 09:35 51.42292 21.65101 28807 ft 429 kts 155°
2026-05-07 09:35 51.39713 21.67555 29231 ft 431 kts 155°
2026-05-07 09:36 51.37132 21.70010 29624 ft 433 kts 155°
2026-05-07 09:36 51.34536 21.72478 30009 ft 435 kts 155°
2026-05-07 09:36 51.31927 21.74959 30345 ft 437 kts 155°
2026-05-07 09:36 51.29305 21.77448 30671 ft 439 kts 155°
2026-05-07 09:37 51.26674 21.79942 31021 ft 441 kts 155°
2026-05-07 09:37 51.24038 21.82438 31426 ft 440 kts 155°
2026-05-07 09:37 51.21406 21.84928 31872 ft 439 kts 155°
2026-05-07 09:37 51.18782 21.87405 32313 ft 438 kts 155°
2026-05-07 09:38 51.16164 21.89867 32676 ft 437 kts 155°
2026-05-07 09:38 51.13536 21.92330 33004 ft 438 kts 155°
2026-05-07 09:38 51.10914 21.94782 33429 ft 436 kts 155°
2026-05-07 09:38 51.08300 21.97223 33843 ft 435 kts 155°
2026-05-07 09:39 51.05695 21.99654 34181 ft 434 kts 155°
2026-05-07 09:39 51.03091 22.02079 34470 ft 434 kts 155°
2026-05-07 09:39 51.00487 22.04503 34746 ft 434 kts 155°
2026-05-07 09:39 50.97881 22.06924 35033 ft 434 kts 155°
2026-05-07 09:40 50.95274 22.09344 35320 ft 434 kts 155°
2026-05-07 09:40 50.92668 22.11761 35600 ft 434 kts 155°
2026-05-07 09:40 50.90036 22.14073 35835 ft 430 kts 161°
2026-05-07 09:40 50.87241 22.15638 36041 ft 423 kts 171°
2026-05-07 09:41 50.84345 22.16321 36176 ft 419 kts 182°
2026-05-07 09:41 50.81453 22.16128 36421 ft 414 kts 191°
2026-05-07 09:41 50.78592 22.15565 36673 ft 414 kts 190°
2026-05-07 09:41 50.75729 22.15017 36914 ft 414 kts 190°
2026-05-07 09:42 50.72870 22.14479 37153 ft 414 kts 190°
2026-05-07 09:42 50.70011 22.13945 37384 ft 413 kts 190°
2026-05-07 09:42 50.67194 22.13421 37598 ft 413 kts 190°
2026-05-07 09:42 50.64340 22.12890 37829 ft 413 kts 190°
2026-05-07 09:43 50.61486 22.12360 38024 ft 413 kts 190°
2026-05-07 09:43 50.58633 22.11830 38230 ft 413 kts 190°
2026-05-07 09:43 50.55777 22.11300 38430 ft 412 kts 190°
2026-05-07 09:43 50.52928 22.10772 38604 ft 412 kts 190°
2026-05-07 09:44 50.50079 22.10244 38722 ft 413 kts 190°
2026-05-07 09:44 50.47227 22.09717 38839 ft 413 kts 190°
2026-05-07 09:44 50.44367 22.09188 38889 ft 414 kts 190°
2026-05-07 09:45 50.38661 22.08137 38888 ft 413 kts 190°
2026-05-07 09:45 50.32948 22.07086 38907 ft 414 kts 190°
2026-05-07 09:46 50.27231 22.06037 38911 ft 413 kts 190°
2026-05-07 09:46 50.21518 22.04992 38909 ft 413 kts 190°
2026-05-07 09:47 50.15804 22.03948 38901 ft 414 kts 190°
2026-05-07 09:47 50.10085 22.02908 38888 ft 414 kts 190°
2026-05-07 09:48 50.04365 22.01869 38892 ft 414 kts 190°
2026-05-07 09:48 49.98636 22.00830 38893 ft 415 kts 190°
2026-05-07 09:49 49.92940 21.99804 38899 ft 415 kts 190°
2026-05-07 09:49 49.87195 21.98768 38912 ft 416 kts 190°
2026-05-07 09:50 49.81444 21.97733 38918 ft 416 kts 190°
2026-05-07 09:50 49.75681 21.96699 38928 ft 417 kts 189°
2026-05-07 09:51 49.69908 21.95665 38936 ft 418 kts 189°
2026-05-07 09:51 49.64147 21.94636 38929 ft 416 kts 189°
2026-05-07 09:52 49.58398 21.93611 38932 ft 416 kts 189°
2026-05-07 09:52 49.52646 21.92587 38937 ft 416 kts 189°
2026-05-07 09:53 49.46894 21.91567 38949 ft 416 kts 189°
2026-05-07 09:53 49.41123 21.90543 38948 ft 419 kts 189°
2026-05-07 09:54 49.35327 21.89521 38954 ft 418 kts 189°
2026-05-07 09:54 49.29616 21.88517 38961 ft 415 kts 189°
2026-05-07 09:55 49.23872 21.87505 38957 ft 416 kts 189°
2026-05-07 09:55 49.18095 21.86490 38960 ft 419 kts 189°
2026-05-07 09:56 49.12310 21.85480 38956 ft 418 kts 189°
2026-05-07 09:56 49.06492 21.84465 38971 ft 418 kts 189°
2026-05-07 09:57 49.00751 21.83466 38973 ft 418 kts 189°
2026-05-07 09:57 48.94968 21.82461 38971 ft 418 kts 189°
2026-05-07 09:58 48.89150 21.81929 38970 ft 421 kts 182°
2026-05-07 09:58 48.83303 21.82735 38970 ft 424 kts 175°
2026-05-07 09:59 48.77469 21.84022 38976 ft 424 kts 175°
2026-05-07 09:59 48.71638 21.85271 38976 ft 423 kts 175°
2026-05-07 10:00 48.65806 21.86503 38978 ft 423 kts 175°
2026-05-07 10:00 48.59982 21.87730 38985 ft 423 kts 175°
2026-05-07 10:01 48.54156 21.88954 38987 ft 423 kts 175°
2026-05-07 10:01 48.48332 21.90177 38992 ft 422 kts 175°
2026-05-07 10:02 48.42511 21.91395 38990 ft 422 kts 175°
2026-05-07 10:02 48.36693 21.92610 38986 ft 422 kts 175°
2026-05-07 10:03 48.30883 21.93912 38985 ft 422 kts 175°
2026-05-07 10:03 48.25125 21.95275 38981 ft 422 kts 174°
2026-05-07 10:04 48.19325 21.96631 38977 ft 422 kts 174°
2026-05-07 10:04 48.13523 21.97974 38976 ft 422 kts 174°
2026-05-07 10:05 48.07723 21.99312 38986 ft 422 kts 174°
2026-05-07 10:05 48.01919 22.00646 38983 ft 422 kts 174°
2026-05-07 10:06 47.96115 22.01979 38977 ft 422 kts 174°
2026-05-07 10:06 47.90299 22.03312 38984 ft 423 kts 174°
2026-05-07 10:07 47.84477 22.04643 38989 ft 424 kts 174°
2026-05-07 10:07 47.78647 22.05972 38972 ft 424 kts 174°
2026-05-07 10:08 47.72801 22.07303 38978 ft 425 kts 174°
2026-05-07 10:08 47.66944 22.08633 38988 ft 426 kts 174°
2026-05-07 10:09 47.61071 22.09963 38995 ft 427 kts 174°
2026-05-07 10:09 47.55235 22.11782 39002 ft 431 kts 166°
2026-05-07 10:10 47.49517 22.14529 39010 ft 432 kts 165°
2026-05-07 10:10 47.43792 22.17284 39014 ft 433 kts 165°
2026-05-07 10:11 47.38073 22.20015 39007 ft 430 kts 165°
2026-05-07 10:11 47.32415 22.22708 39003 ft 431 kts 165°
2026-05-07 10:12 47.26688 22.25424 39009 ft 433 kts 165°
2026-05-07 10:12 47.20961 22.28135 39018 ft 432 kts 165°
2026-05-07 10:13 47.15235 22.30838 39020 ft 432 kts 165°
2026-05-07 10:13 47.09507 22.33537 39025 ft 432 kts 165°
2026-05-07 10:14 47.03781 22.36228 39015 ft 432 kts 165°
2026-05-07 10:14 46.98053 22.38915 39013 ft 432 kts 165°
2026-05-07 10:15 46.92327 22.41595 39019 ft 432 kts 165°
2026-05-07 10:15 46.86607 22.44265 39022 ft 433 kts 165°
2026-05-07 10:16 46.80865 22.46942 39026 ft 433 kts 166°
2026-05-07 10:16 46.75116 22.49615 39028 ft 434 kts 166°
2026-05-07 10:17 46.69359 22.52281 39030 ft 435 kts 165°
2026-05-07 10:17 46.63625 22.54936 39044 ft 436 kts 165°
2026-05-07 10:18 46.57838 22.57608 39049 ft 437 kts 165°
2026-05-07 10:18 46.52043 22.60280 39044 ft 436 kts 165°
2026-05-07 10:19 46.46279 22.62930 39046 ft 435 kts 165°
2026-05-07 10:19 46.40507 22.65575 39036 ft 435 kts 165°
2026-05-07 10:20 46.34732 22.68218 39050 ft 436 kts 165°
2026-05-07 10:20 46.28940 22.70865 39052 ft 437 kts 165°
2026-05-07 10:21 46.23144 22.73503 39052 ft 437 kts 165°
2026-05-07 10:21 46.18335 22.75689 39055 ft 436 kts 165°
2026-05-07 10:22 46.12541 22.78318 39048 ft 436 kts 165°
2026-05-07 10:22 46.06753 22.80939 39037 ft 436 kts 165°
2026-05-07 10:23 46.00969 22.83551 39048 ft 436 kts 165°
2026-05-07 10:23 45.95148 22.86175 39041 ft 435 kts 165°
2026-05-07 10:24 45.89407 22.88757 39039 ft 435 kts 165°
2026-05-07 10:24 45.83620 22.91355 39035 ft 436 kts 166°
2026-05-07 10:25 45.77833 22.93946 39031 ft 436 kts 166°
2026-05-07 10:25 45.72047 22.96530 39040 ft 436 kts 165°
2026-05-07 10:26 45.66255 22.99113 39051 ft 436 kts 165°
2026-05-07 10:26 45.60460 23.01693 39041 ft 437 kts 166°
2026-05-07 10:27 45.54651 23.04271 39056 ft 437 kts 166°
2026-05-07 10:27 45.48834 23.06847 39069 ft 438 kts 166°
2026-05-07 10:28 45.43012 23.09421 39070 ft 438 kts 166°
2026-05-07 10:28 45.37188 23.11988 39078 ft 438 kts 166°
2026-05-07 10:29 45.31372 23.14549 39081 ft 437 kts 166°
2026-05-07 10:29 45.25599 23.17084 39086 ft 438 kts 166°
2026-05-07 10:30 45.16844 23.20920 39085 ft 437 kts 166°
2026-05-07 10:30 45.11051 23.23454 39079 ft 435 kts 166°
2026-05-07 10:31 45.05285 23.25967 39058 ft 433 kts 166°
2026-05-07 10:31 44.99495 23.28483 39083 ft 438 kts 166°
2026-05-07 10:32 44.93678 23.31009 39083 ft 436 kts 166°
2026-05-07 10:32 44.92701 23.31433 39085 ft 435 kts 166°